,,Stat5,,Stat1,,Stat2,,Stat3,,Stat4,,Wind1,,Wind1,
time,status,PA1M_AVG,status,PR1M_SUM,status,RH1M_AVG,status,SR1M_AVG,status,TA1M_AVG,status,W1dAve1m,status,W1sAve1m,
2002-06-06, 00:00:00,VALID,917.579,VALID,0,VALID,98.899,VALID,-0.101885,VALID,20.4321,VALID,191,VALID,0.0499589,
2002-06-06, 00:01:00,VALID,917.579,VALID,0,VALID,98.894,VALID,-0.0849042,VALID,20.4256,VALID,199,VALID,0.177455,
2002-06-06, 00:02:00,VALID,917.568,VALID,0,VALID,98.88,VALID,-0.0849042,VALID,20.442,VALID,282,VALID,0.311581,
2002-06-06, 00:03:00,VALID,917.564,VALID,0,VALID,98.8889,VALID,-0.101885,VALID,20.4783,VALID,326,VALID,0.349609,
2002-06-06, 00:04:00,VALID,917.551,VALID,0,VALID,98.88,VALID,-0.0509425,VALID,20.5037,VALID,334,VALID,0.285275,
2002-06-06, 00:05:00,VALID,917.553,VALID,0,VALID,98.8406,VALID,-0.0679233,VALID,20.5002,VALID,335,VALID,0.233482,
2002-06-06, 00:06:00,VALID,917.559,VALID,0,VALID,98.8113,VALID,-0.0849042,VALID,20.5168,VALID,335,VALID,0.246484,
2002-06-06, 00:07:00,VALID,917.545,VALID,0,VALID,98.7859,VALID,-0.101885,VALID,20.5198,VALID,336,VALID,0.190625,
2002-06-06, 00:08:00,VALID,917.557,VALID,0,VALID,98.7363,VALID,-0.101885,VALID,20.523,VALID,336,VALID,0.141085,
2002-06-06, 00:09:00,VALID,917.557,VALID,0,VALID,98.7197,VALID,-0.101885,VALID,20.5193,VALID,336,VALID,0.0460938,
2002-06-06, 00:10:00,VALID,917.586,VALID,0,VALID,98.6918,VALID,-0.0169808,VALID,20.5287,VALID,336,VALID,0,
2002-06-06, 00:11:00,VALID,917.614,VALID,0,VALID,98.6676,VALID,0,VALID,20.5384,VALID,336,VALID,0.000892857,
2002-06-06, 00:12:00,VALID,917.627,VALID,0,VALID,98.6167,VALID,0,VALID,20.5419,VALID,336,VALID,0.136523,
2002-06-06, 00:13:00,VALID,917.629,VALID,0,VALID,98.5417,VALID,-0.0169808,VALID,20.5451,VALID,32,VALID,0.283036,
2002-06-06, 00:14:00,VALID,917.627,VALID,0,VALID,98.4108,VALID,0.0169808,VALID,20.5064,VALID,68,VALID,0.701746,
2002-06-06, 00:15:00,VALID,917.602,VALID,0,VALID,98.3573,VALID,0,VALID,20.4797,VALID,62,VALID,0.886328,
2002-06-06, 00:16:00,VALID,917.576,VALID,0,VALID,98.3383,VALID,-0.0169808,VALID,20.4743,VALID,60,VALID,0.863163,
2002-06-06, 00:17:00,VALID,917.555,VALID,0,VALID,98.309,VALID,-0.0169808,VALID,20.4609,VALID,72,VALID,0.962946,
2002-06-06, 00:18:00,VALID,917.529,VALID,0,VALID,98.2709,VALID,0.0169808,VALID,20.4544,VALID,67,VALID,0.866211,
2002-06-06, 00:19:00,VALID,917.516,VALID,0,VALID,98.281,VALID,0,VALID,20.4544,VALID,52,VALID,0.93683,
2002-06-06, 00:20:00,VALID,917.498,VALID,0,VALID,98.2938,VALID,0,VALID,20.4418,VALID,55,VALID,1.01838,
2002-06-06, 00:21:00,VALID,917.489,VALID,0,VALID,98.3128,VALID,0,VALID,20.4219,VALID,49,VALID,0.855469,
2002-06-06, 00:22:00,VALID,917.491,VALID,0,VALID,98.3497,VALID,0,VALID,20.4156,VALID,49,VALID,0.713542,
2002-06-06, 00:23:00,VALID,917.487,VALID,0,VALID,98.3612,VALID,-0.0169808,VALID,20.4062,VALID,56,VALID,0.775446,
2002-06-06, 00:24:00,VALID,917.481,VALID,0,VALID,98.4375,VALID,0,VALID,20.4129,VALID,27,VALID,0.423828,
2002-06-06, 00:25:00,VALID,917.474,VALID,0,VALID,98.4896,VALID,0,VALID,20.3893,VALID,6,VALID,0.50625,
2002-06-06, 00:26:00,VALID,917.458,VALID,0,VALID,98.5341,VALID,0,VALID,20.4062,VALID,5,VALID,0.362822,
2002-06-06, 00:27:00,VALID,917.449,VALID,0,VALID,98.5506,VALID,0,VALID,20.396,VALID,7,VALID,0.179883,
2002-06-06, 00:28:00,VALID,917.44,VALID,0,VALID,98.5824,VALID,0.0169808,VALID,20.4025,VALID,7,VALID,0.0840436,
2002-06-06, 00:29:00,VALID,917.425,VALID,0,VALID,98.6333,VALID,-0.0169808,VALID,20.4122,VALID,7,VALID,0.0178571,
2002-06-06, 00:30:00,VALID,917.412,VALID,0,VALID,98.6714,VALID,0,VALID,20.4385,VALID,7,VALID,0,
2002-06-06, 00:31:00,VALID,917.4,VALID,0,VALID,98.6574,VALID,-0.0169808,VALID,20.4415,VALID,7,VALID,0,
2002-06-06, 00:32:00,VALID,917.39,VALID,0,VALID,98.6587,VALID,0,VALID,20.4415,VALID,7,VALID,0,
2002-06-06, 00:33:00,VALID,917.377,VALID,0,VALID,98.6651,VALID,0,VALID,20.4447,VALID,7,VALID,0,
2002-06-06, 00:34:00,VALID,917.373,VALID,0,VALID,98.6422,VALID,0,VALID,20.445,VALID,7,VALID,0,
2002-06-06, 00:35:00,VALID,917.361,VALID,0,VALID,98.6104,VALID,-0.0169808,VALID,20.4291,VALID,7,VALID,0,
2002-06-06, 00:36:00,VALID,917.336,VALID,0,VALID,98.5913,VALID,0,VALID,20.4027,VALID,7,VALID,0,
2002-06-06, 00:37:00,VALID,917.308,VALID,0,VALID,98.571,VALID,-0.0339617,VALID,20.3933,VALID,7,VALID,0,
2002-06-06, 00:38:00,VALID,917.293,VALID,0,VALID,98.5646,VALID,-0.0169808,VALID,20.3836,VALID,7,VALID,0.0710018,
2002-06-06, 00:39:00,VALID,917.264,VALID,0,VALID,98.5519,VALID,0.0169808,VALID,20.3804,VALID,7,VALID,0.0654297,
2002-06-06, 00:40:00,VALID,917.227,VALID,0,VALID,98.5392,VALID,-0.0169808,VALID,20.3739,VALID,7,VALID,0.0179924,
2002-06-06, 00:41:00,VALID,917.195,VALID,0,VALID,98.5417,VALID,-0.0169808,VALID,20.3704,VALID,6,VALID,0,
2002-06-06, 00:42:00,VALID,917.16,VALID,0,VALID,98.5265,VALID,-0.0169808,VALID,20.3575,VALID,309,VALID,0.264062,
2002-06-06, 00:43:00,VALID,917.155,VALID,0,VALID,98.5239,VALID,0,VALID,20.3545,VALID,304,VALID,0.0330357,
2002-06-06, 00:44:00,VALID,917.139,VALID,0,VALID,98.5455,VALID,-0.0169808,VALID,20.3577,VALID,285,VALID,0.127298,
2002-06-06, 00:45:00,VALID,917.135,VALID,0,VALID,98.5265,VALID,-0.0169808,VALID,20.3548,VALID,267,VALID,0.195703,
2002-06-06, 00:46:00,VALID,917.119,VALID,0,VALID,98.4947,VALID,0,VALID,20.3284,VALID,232,VALID,0.294981,
2002-06-06, 00:47:00,VALID,917.087,VALID,0,VALID,98.4845,VALID,-0.0339617,VALID,20.3125,VALID,196,VALID,0.447991,
2002-06-06, 00:48:00,VALID,917.051,VALID,0,VALID,98.4692,VALID,0,VALID,20.3063,VALID,204,VALID,0.393164,
2002-06-06, 00:49:00,VALID,917.003,VALID,0,VALID,98.4616,VALID,0,VALID,20.3001,VALID,205,VALID,0.286384,
2002-06-06, 00:50:00,VALID,916.969,VALID,0,VALID,98.4464,VALID,-0.0169808,VALID,20.2904,VALID,218,VALID,0.217371,
2002-06-06, 00:51:00,VALID,916.922,VALID,0,VALID,98.4057,VALID,-0.0169808,VALID,20.2668,VALID,231,VALID,0.19043,
2002-06-06, 00:52:00,VALID,916.875,VALID,0,VALID,98.4095,VALID,0,VALID,20.2807,VALID,248,VALID,0.182055,
2002-06-06, 00:53:00,VALID,916.827,VALID,0,VALID,98.3484,VALID,-0.0679233,VALID,20.2902,VALID,258,VALID,0.294196,
2002-06-06, 00:54:00,VALID,916.775,VALID,0,VALID,98.2162,VALID,0,VALID,20.2775,VALID,316,VALID,0.437305,
2002-06-06, 00:55:00,VALID,916.756,VALID,0,VALID,98.1386,VALID,0,VALID,20.2355,VALID,1,VALID,0.799777,
2002-06-06, 00:56:00,VALID,916.719,VALID,0,VALID,98.1475,VALID,-0.0169808,VALID,20.2288,VALID,7,VALID,0.757583,
2002-06-06, 00:57:00,VALID,916.686,VALID,0,VALID,98.1475,VALID,0,VALID,20.2091,VALID,14,VALID,0.73125,
2002-06-06, 00:58:00,VALID,916.658,VALID,0,VALID,98.0954,VALID,-0.0339617,VALID,20.2094,VALID,15,VALID,0.665956,
2002-06-06, 00:59:00,VALID,916.657,VALID,0,VALID,98.0585,VALID,0,VALID,20.1741,VALID,25,VALID,0.642187,
2002-06-06, 01:00:00,VALID,916.653,VALID,0,VALID,98.1221,VALID,0,VALID,20.1634,VALID,26,VALID,0.359169,
2002-06-06, 01:01:00,VALID,916.669,VALID,0,VALID,98.1513,VALID,-0.0169808,VALID,20.1714,VALID,26,VALID,0.208259,
2002-06-06, 01:02:00,VALID,916.687,VALID,0,VALID,98.1132,VALID,-0.0339617,VALID,20.1547,VALID,46,VALID,0.132353,
2002-06-06, 01:03:00,VALID,916.696,VALID,0,VALID,98.0789,VALID,0,VALID,20.1219,VALID,118,VALID,0.251172,
2002-06-06, 01:04:00,VALID,916.686,VALID,0,VALID,98.0598,VALID,-0.0339617,VALID,20.0938,VALID,120,VALID,0.185843,
2002-06-06, 01:05:00,VALID,916.684,VALID,0,VALID,98.0814,VALID,0,VALID,20.0737,VALID,119,VALID,0.119643,
2002-06-06, 01:06:00,VALID,916.672,VALID,0,VALID,98.0992,VALID,-0.0339617,VALID,20.0543,VALID,109,VALID,0.381836,
2002-06-06, 01:07:00,VALID,916.645,VALID,0,VALID,98.1234,VALID,0,VALID,20.0312,VALID,94,VALID,0.666071,
2002-06-06, 01:08:00,VALID,916.632,VALID,0,VALID,98.0738,VALID,0,VALID,20.0218,VALID,83,VALID,0.829963,
2002-06-06, 01:09:00,VALID,916.63,VALID,0,VALID,97.9886,VALID,0,VALID,19.9768,VALID,75,VALID,0.764844,
2002-06-06, 01:10:00,VALID,916.649,VALID,0,VALID,98.0789,VALID,0.0679233,VALID,19.9559,VALID,71,VALID,0.854167,
2002-06-06, 01:11:00,VALID,916.666,VALID,0,VALID,98.1844,VALID,0,VALID,19.976,VALID,70,VALID,0.921875,
2002-06-06, 01:12:00,VALID,916.681,VALID,0,VALID,98.2137,VALID,-0.0509425,VALID,19.9668,VALID,72,VALID,0.724414,
2002-06-06, 01:13:00,VALID,916.694,VALID,0,VALID,98.1641,VALID,-0.0339617,VALID,19.9579,VALID,81,VALID,0.839509,
2002-06-06, 01:14:00,VALID,916.697,VALID,0,VALID,98.2302,VALID,-0.0169808,VALID,19.9418,VALID,97,VALID,0.909237,
2002-06-06, 01:15:00,VALID,916.707,VALID,0,VALID,98.3001,VALID,-0.0339617,VALID,19.9052,VALID,112,VALID,0.648633,
2002-06-06, 01:16:00,VALID,916.726,VALID,0,VALID,98.3561,VALID,-0.0169808,VALID,19.9025,VALID,125,VALID,0.262074,
2002-06-06, 01:17:00,VALID,916.739,VALID,0,VALID,98.3815,VALID,-0.0339617,VALID,19.8801,VALID,126,VALID,0.228795,
2002-06-06, 01:18:00,VALID,916.744,VALID,0,VALID,98.4324,VALID,-0.0679233,VALID,19.8841,VALID,135,VALID,0.428711,
2002-06-06, 01:19:00,VALID,916.725,VALID,0,VALID,98.482,VALID,-0.0679233,VALID,19.8575,VALID,130,VALID,0.586384,
2002-06-06, 01:20:00,VALID,916.688,VALID,0,VALID,98.5608,VALID,-0.0339617,VALID,19.861,VALID,128,VALID,0.485754,
2002-06-06, 01:21:00,VALID,916.655,VALID,0,VALID,98.6256,VALID,-0.0679233,VALID,19.8839,VALID,123,VALID,0.533984,
2002-06-06, 01:22:00,VALID,916.615,VALID,0,VALID,98.6587,VALID,-0.0679233,VALID,19.8836,VALID,116,VALID,0.525805,
2002-06-06, 01:23:00,VALID,916.581,VALID,0,VALID,98.7185,VALID,-0.0679233,VALID,19.8901,VALID,102,VALID,0.427009,
2002-06-06, 01:24:00,VALID,916.547,VALID,0,VALID,98.7503,VALID,-0.0169808,VALID,19.9065,VALID,100,VALID,0.417969,
2002-06-06, 01:25:00,VALID,916.518,VALID,0,VALID,98.7732,VALID,0.0339617,VALID,19.9181,VALID,95,VALID,0.510714,
2002-06-06, 01:26:00,VALID,916.51,VALID,0,VALID,98.763,VALID,0.0169808,VALID,19.9112,VALID,86,VALID,0.491039,
2002-06-06, 01:27:00,VALID,916.515,VALID,0,VALID,98.7617,VALID,0.0339617,VALID,19.9117,VALID,80,VALID,0.322461,
2002-06-06, 01:28:00,VALID,916.517,VALID,0,VALID,98.7465,VALID,0,VALID,19.9047,VALID,80,VALID,0.403172,
2002-06-06, 01:29:00,VALID,916.505,VALID,0,VALID,98.735,VALID,0,VALID,19.8918,VALID,80,VALID,0.471652,
2002-06-06, 01:30:00,VALID,916.508,VALID,0,VALID,98.7554,VALID,0.0509425,VALID,19.8853,VALID,106,VALID,0.569922,
2002-06-06, 01:31:00,VALID,916.493,VALID,0,VALID,98.8151,VALID,0.0509425,VALID,19.9084,VALID,145,VALID,0.839732,
2002-06-06, 01:32:00,VALID,916.48,VALID,0,VALID,98.8266,VALID,0.0509425,VALID,19.9149,VALID,152,VALID,1.0602,
2002-06-06, 01:33:00,VALID,916.462,VALID,0,VALID,98.8787,VALID,0,VALID,19.9238,VALID,152,VALID,1.16914,
2002-06-06, 01:34:00,VALID,916.426,VALID,0,VALID,98.9105,VALID,0.0339617,VALID,19.9475,VALID,153,VALID,1.14418,
2002-06-06, 01:35:00,VALID,916.405,VALID,0,VALID,98.9436,VALID,0.0339617,VALID,19.9728,VALID,149,VALID,1.02679,
2002-06-06, 01:36:00,VALID,916.382,VALID,0,VALID,98.969,VALID,0.0169808,VALID,19.9952,VALID,149,VALID,0.992383,
2002-06-06, 01:37:00,VALID,916.369,VALID,0,VALID,99.0059,VALID,0.0339617,VALID,20.0218,VALID,144,VALID,1.14844,
2002-06-06, 01:38:00,VALID,916.357,VALID,0,VALID,99.0338,VALID,0.0679233,VALID,20.0436,VALID,143,VALID,1.39522,
2002-06-06, 01:39:00,VALID,916.373,VALID,0,VALID,99.0567,VALID,0.0339617,VALID,20.0695,VALID,156,VALID,1.05176,
2002-06-06, 01:40:00,VALID,916.388,VALID,0,VALID,99.0682,VALID,0.0169808,VALID,20.0859,VALID,139,VALID,0.882339,
2002-06-06, 01:41:00,VALID,916.398,VALID,0,VALID,99.0885,VALID,0.0339617,VALID,20.0956,VALID,129,VALID,0.805134,
2002-06-06, 01:42:00,VALID,916.383,VALID,0,VALID,99.0771,VALID,0.0339617,VALID,20.1147,VALID,125,VALID,0.509961,
2002-06-06, 01:43:00,VALID,916.373,VALID,0,VALID,99.0911,VALID,0.0849042,VALID,20.1117,VALID,130,VALID,0.0930804,
2002-06-06, 01:44:00,VALID,916.358,VALID,0,VALID,99.1063,VALID,0.0339617,VALID,20.137,VALID,130,VALID,0.0965074,
2002-06-06, 01:45:00,VALID,916.34,VALID,0,VALID,99.1101,VALID,0.0679233,VALID,20.1336,VALID,130,VALID,0.00976563,
2002-06-06, 01:46:00,VALID,916.306,VALID,0,VALID,99.1203,VALID,0.0679233,VALID,20.1569,VALID,137,VALID,0.237453,
2002-06-06, 01:47:00,VALID,916.283,VALID,0,VALID,99.1114,VALID,0.101885,VALID,20.1637,VALID,153,VALID,0.36808,
2002-06-06, 01:48:00,VALID,916.274,VALID,0,VALID,99.1241,VALID,0.0509425,VALID,20.1529,VALID,150,VALID,0.420117,
2002-06-06, 01:49:00,VALID,916.239,VALID,0,VALID,99.1178,VALID,0.0169808,VALID,20.1602,VALID,120,VALID,0.441741,
2002-06-06, 01:50:00,VALID,916.238,VALID,0,VALID,99.1114,VALID,0.0339617,VALID,20.15,VALID,119,VALID,0.424173,
2002-06-06, 01:51:00,VALID,916.224,VALID,0,VALID,99.1,VALID,0.0169808,VALID,20.1311,VALID,97,VALID,0.720703,
2002-06-06, 01:52:00,VALID,916.191,VALID,0,VALID,99.0949,VALID,0.0679233,VALID,20.1122,VALID,83,VALID,0.691761,
2002-06-06, 01:53:00,VALID,916.157,VALID,0,VALID,99.0885,VALID,0.0509425,VALID,20.0762,VALID,74,VALID,0.677232,
2002-06-06, 01:54:00,VALID,916.127,VALID,0,VALID,99.1012,VALID,0.0169808,VALID,20.0565,VALID,72,VALID,0.748438,
2002-06-06, 01:55:00,VALID,916.091,VALID,0,VALID,99.1063,VALID,0.0169808,VALID,20.0536,VALID,78,VALID,0.797768,
2002-06-06, 01:56:00,VALID,916.076,VALID,0,VALID,99.1076,VALID,0.0169808,VALID,20.0304,VALID,83,VALID,0.840074,
2002-06-06, 01:57:00,VALID,916.059,VALID,0,VALID,99.1114,VALID,0.0169808,VALID,20.0247,VALID,94,VALID,0.70332,
2002-06-06, 01:58:00,VALID,916.065,VALID,0,VALID,99.119,VALID,0.0509425,VALID,20.0049,VALID,97,VALID,0.60535,
2002-06-06, 01:59:00,VALID,916.049,VALID,0,VALID,99.1356,VALID,0.0509425,VALID,20.0049,VALID,102,VALID,0.603348,
2002-06-06, 02:00:00,VALID,916.023,VALID,0,VALID,99.1546,VALID,0,VALID,20.0151,VALID,125,VALID,0.529688,
2002-06-06, 02:01:00,VALID,915.999,VALID,0,VALID,99.1686,VALID,0.0339617,VALID,20.0215,VALID,143,VALID,0.413393,
2002-06-06, 02:02:00,VALID,915.966,VALID,0,VALID,99.1864,VALID,0.0509425,VALID,20.0307,VALID,137,VALID,0.852941,
2002-06-06, 02:03:00,VALID,915.934,VALID,0,VALID,99.1928,VALID,0.0679233,VALID,20.0401,VALID,128,VALID,0.730078,
2002-06-06, 02:04:00,VALID,915.908,VALID,0,VALID,99.2055,VALID,0.0339617,VALID,20.0404,VALID,121,VALID,0.52178,
2002-06-06, 02:05:00,VALID,915.891,VALID,0,VALID,99.2055,VALID,0.0339617,VALID,20.0396,VALID,135,VALID,0.897991,
2002-06-06, 02:06:00,VALID,915.845,VALID,0,VALID,99.2042,VALID,0,VALID,20.0531,VALID,140,VALID,0.798437,
2002-06-06, 02:07:00,VALID,915.824,VALID,0,VALID,99.2017,VALID,0.0679233,VALID,20.0665,VALID,99,VALID,0.669196,
2002-06-06, 02:08:00,VALID,915.789,VALID,0,VALID,99.1991,VALID,0.0509425,VALID,20.0461,VALID,69,VALID,0.653493,
2002-06-06, 02:09:00,VALID,915.769,VALID,0,VALID,99.2042,VALID,0.0169808,VALID,20.0401,VALID,58,VALID,0.758008,
2002-06-06, 02:10:00,VALID,915.744,VALID,0,VALID,99.2004,VALID,-0.0679233,VALID,20.0414,VALID,74,VALID,0.834517,
2002-06-06, 02:11:00,VALID,915.755,VALID,0,VALID,99.1902,VALID,-0.0679233,VALID,20.0255,VALID,99,VALID,0.874777,
2002-06-06, 02:12:00,VALID,915.768,VALID,0,VALID,99.1902,VALID,-0.0509425,VALID,20.0292,VALID,122,VALID,0.562891,
2002-06-06, 02:13:00,VALID,915.784,VALID,0,VALID,99.2042,VALID,-0.0679233,VALID,20.019,VALID,127,VALID,0.611161,
2002-06-06, 02:14:00,VALID,915.803,VALID,0,VALID,99.2144,VALID,-0.101885,VALID,20.0357,VALID,108,VALID,0.651425,
2002-06-06, 02:15:00,VALID,915.815,VALID,0,VALID,99.2144,VALID,-0.0849042,VALID,20.0223,VALID,84,VALID,0.632227,
2002-06-06, 02:16:00,VALID,915.828,VALID,0,VALID,99.2144,VALID,-0.0679233,VALID,20.029,VALID,71,VALID,0.875947,
2002-06-06, 02:17:00,VALID,915.826,VALID,0,VALID,99.2246,VALID,-0.0849042,VALID,20.0422,VALID,58,VALID,0.672545,
2002-06-06, 02:18:00,VALID,915.826,VALID,0,VALID,99.2284,VALID,-0.0849042,VALID,20.0548,VALID,58,VALID,0.888477,
2002-06-06, 02:19:00,VALID,915.832,VALID,0,VALID,99.2246,VALID,-0.101885,VALID,20.0317,VALID,65,VALID,0.961607,
2002-06-06, 02:20:00,VALID,915.819,VALID,0,VALID,99.2258,VALID,-0.0679233,VALID,20.0387,VALID,57,VALID,0.663373,
2002-06-06, 02:21:00,VALID,915.809,VALID,0,VALID,99.2157,VALID,-0.101885,VALID,20.0193,VALID,69,VALID,0.650977,
2002-06-06, 02:22:00,VALID,915.818,VALID,0,VALID,99.2119,VALID,-0.118866,VALID,19.983,VALID,80,VALID,0.556345,
2002-06-06, 02:23:00,VALID,915.803,VALID,0,VALID,99.2093,VALID,-0.101885,VALID,19.9813,VALID,104,VALID,0.702679,
2002-06-06, 02:24:00,VALID,915.793,VALID,0,VALID,99.2195,VALID,-0.101885,VALID,19.9843,VALID,145,VALID,0.435352,
2002-06-06, 02:25:00,VALID,915.781,VALID,0,VALID,99.2335,VALID,-0.0849042,VALID,19.9939,VALID,119,VALID,0.573884,
2002-06-06, 02:26:00,VALID,915.754,VALID,0,VALID,99.2437,VALID,-0.0679233,VALID,20.0066,VALID,101,VALID,0.682904,
2002-06-06, 02:27:00,VALID,915.722,VALID,0,VALID,99.2462,VALID,-0.0679233,VALID,20.0193,VALID,96,VALID,0.648633,
2002-06-06, 02:28:00,VALID,915.692,VALID,0,VALID,99.2538,VALID,-0.0849042,VALID,20.0257,VALID,78,VALID,0.592803,
2002-06-06, 02:29:00,VALID,915.653,VALID,0,VALID,99.2665,VALID,-0.101885,VALID,20.022,VALID,71,VALID,0.703795,
2002-06-06, 02:30:00,VALID,915.631,VALID,0,VALID,99.2589,VALID,-0.101885,VALID,20.032,VALID,61,VALID,0.816602,
2002-06-06, 02:31:00,VALID,915.606,VALID,0,VALID,99.2564,VALID,-0.0339617,VALID,20.0417,VALID,63,VALID,0.942411,
2002-06-06, 02:32:00,VALID,915.598,VALID,0,VALID,99.2589,VALID,-0.0339617,VALID,20.0287,VALID,51,VALID,0.920726,
2002-06-06, 02:33:00,VALID,915.595,VALID,0,VALID,99.2525,VALID,-0.0679233,VALID,20.0223,VALID,46,VALID,1.03711,
2002-06-06, 02:34:00,VALID,915.579,VALID,0,VALID,99.2564,VALID,-0.0679233,VALID,20.0126,VALID,43,VALID,0.962358,
2002-06-06, 02:35:00,VALID,915.566,VALID,0,VALID,99.2653,VALID,-0.0169808,VALID,20.032,VALID,59,VALID,0.82567,
2002-06-06, 02:36:00,VALID,915.546,VALID,0,VALID,99.2653,VALID,-0.0509425,VALID,20.0411,VALID,60,VALID,1.03008,
2002-06-06, 02:37:00,VALID,915.517,VALID,0,VALID,99.2704,VALID,-0.0509425,VALID,20.0546,VALID,62,VALID,0.832366,
2002-06-06, 02:38:00,VALID,915.503,VALID,0,VALID,99.2805,VALID,-0.0509425,VALID,20.0645,VALID,73,VALID,1.19738,
2002-06-06, 02:39:00,VALID,915.47,VALID,0,VALID,99.2856,VALID,-0.0679233,VALID,20.0705,VALID,78,VALID,0.935352,
2002-06-06, 02:40:00,VALID,915.439,VALID,0,VALID,99.2754,VALID,-0.0169808,VALID,20.0767,VALID,84,VALID,0.861032,
2002-06-06, 02:41:00,VALID,915.412,VALID,0,VALID,99.2754,VALID,-0.0339617,VALID,20.0799,VALID,71,VALID,1.0029,
2002-06-06, 02:42:00,VALID,915.359,VALID,0,VALID,99.2843,VALID,-0.0679233,VALID,20.0866,VALID,67,VALID,0.829102,
2002-06-06, 02:43:00,VALID,915.321,VALID,0,VALID,99.2805,VALID,0,VALID,20.0899,VALID,67,VALID,0.686607,
2002-06-06, 02:44:00,VALID,915.294,VALID,0,VALID,99.2754,VALID,-0.0169808,VALID,20.0799,VALID,71,VALID,0.539292,
2002-06-06, 02:45:00,VALID,915.263,VALID,0,VALID,99.2843,VALID,-0.0849042,VALID,20.0769,VALID,62,VALID,0.393359,
2002-06-06, 02:46:00,VALID,915.261,VALID,0,VALID,99.2831,VALID,-0.0679233,VALID,20.0869,VALID,87,VALID,0.356297,
2002-06-06, 02:47:00,VALID,915.268,VALID,0,VALID,99.2793,VALID,-0.0679233,VALID,20.0866,VALID,100,VALID,0.160491,
2002-06-06, 02:48:00,VALID,915.287,VALID,0,VALID,99.2767,VALID,-0.0509425,VALID,20.0799,VALID,106,VALID,0.223828,
2002-06-06, 02:49:00,VALID,915.304,VALID,0,VALID,99.2945,VALID,-0.101885,VALID,20.0971,VALID,139,VALID,0.319866,
2002-06-06, 02:50:00,VALID,915.346,VALID,0,VALID,99.2793,VALID,-0.0679233,VALID,20.1065,VALID,152,VALID,0.369945,
2002-06-06, 02:51:00,VALID,915.358,VALID,0,VALID,99.2882,VALID,-0.0849042,VALID,20.1063,VALID,159,VALID,0.18457,
2002-06-06, 02:52:00,VALID,915.383,VALID,0,VALID,99.2831,VALID,-0.0679233,VALID,20.1095,VALID,175,VALID,0.299242,
2002-06-06, 02:53:00,VALID,915.394,VALID,0,VALID,99.2793,VALID,-0.0509425,VALID,20.1028,VALID,234,VALID,0.516059,
2002-06-06, 02:54:00,VALID,915.404,VALID,0,VALID,99.2691,VALID,-0.0679233,VALID,20.0968,VALID,235,VALID,0.64375,
2002-06-06, 02:55:00,VALID,915.429,VALID,0,VALID,99.2678,VALID,-0.0679233,VALID,20.0836,VALID,252,VALID,0.641295,
2002-06-06, 02:56:00,VALID,915.451,VALID,0,VALID,99.2665,VALID,-0.0509425,VALID,20.0774,VALID,252,VALID,0.7392,
2002-06-06, 02:57:00,VALID,915.475,VALID,0,VALID,99.2653,VALID,-0.0339617,VALID,20.061,VALID,242,VALID,0.741992,
2002-06-06, 02:58:00,VALID,915.491,VALID,0,VALID,99.2678,VALID,-0.0849042,VALID,20.0581,VALID,233,VALID,0.315578,
2002-06-06, 02:59:00,VALID,915.516,VALID,0,VALID,99.264,VALID,-0.0849042,VALID,20.0645,VALID,229,VALID,0.158705,
2002-06-06, 03:00:00,VALID,915.552,VALID,0,VALID,99.264,VALID,-0.0169808,VALID,20.0576,VALID,229,VALID,0.0197266,
2002-06-06, 03:01:00,VALID,915.575,VALID,0,VALID,99.2754,VALID,-0.0679233,VALID,20.0836,VALID,229,VALID,0.179241,
2002-06-06, 03:02:00,VALID,915.59,VALID,0,VALID,99.2818,VALID,-0.0679233,VALID,20.0966,VALID,229,VALID,0.0588235,
2002-06-06, 03:03:00,VALID,915.61,VALID,0,VALID,99.2805,VALID,-0.0509425,VALID,20.1192,VALID,276,VALID,0.18418,
2002-06-06, 03:04:00,VALID,915.64,VALID,0,VALID,99.278,VALID,-0.0679233,VALID,20.1127,VALID,324,VALID,0.445549,
2002-06-06, 03:05:00,VALID,915.653,VALID,0,VALID,99.2793,VALID,-0.0849042,VALID,20.1132,VALID,314,VALID,0.503348,
2002-06-06, 03:06:00,VALID,915.666,VALID,0,VALID,99.2729,VALID,-0.0849042,VALID,20.0894,VALID,305,VALID,0.449609,
2002-06-06, 03:07:00,VALID,915.678,VALID,0,VALID,99.2767,VALID,-0.0679233,VALID,20.1095,VALID,304,VALID,0.381473,
2002-06-06, 03:08:00,VALID,915.701,VALID,0,VALID,99.2843,VALID,-0.0679233,VALID,20.1321,VALID,303,VALID,0.407399,
2002-06-06, 03:09:00,VALID,915.716,VALID,0,VALID,99.2767,VALID,-0.0849042,VALID,20.1125,VALID,303,VALID,0.560742,
2002-06-06, 03:10:00,VALID,915.735,VALID,0,VALID,99.2818,VALID,-0.0679233,VALID,20.1348,VALID,303,VALID,0.376894,
2002-06-06, 03:11:00,VALID,915.763,VALID,0,VALID,99.2843,VALID,-0.0849042,VALID,20.1542,VALID,303,VALID,0.215625,
2002-06-06, 03:12:00,VALID,915.771,VALID,0,VALID,99.2843,VALID,-0.0849042,VALID,20.158,VALID,303,VALID,0.0679687,
2002-06-06, 03:13:00,VALID,915.785,VALID,0,VALID,99.2818,VALID,-0.0679233,VALID,20.1679,VALID,303,VALID,0.165402,
2002-06-06, 03:14:00,VALID,915.793,VALID,0,VALID,99.2856,VALID,-0.0339617,VALID,20.1644,VALID,303,VALID,0,
2002-06-06, 03:15:00,VALID,915.796,VALID,0,VALID,99.2704,VALID,-0.0339617,VALID,20.1671,VALID,303,VALID,0.00175781,
2002-06-06, 03:16:00,VALID,915.829,VALID,0,VALID,99.2678,VALID,-0.0509425,VALID,20.1574,VALID,303,VALID,0.184422,
2002-06-06, 03:17:00,VALID,915.841,VALID,0,VALID,99.2678,VALID,-0.0509425,VALID,20.1517,VALID,298,VALID,0.107589,
2002-06-06, 03:18:00,VALID,915.86,VALID,0,VALID,99.2729,VALID,-0.0509425,VALID,20.1483,VALID,298,VALID,0.00429688,
2002-06-06, 03:19:00,VALID,915.868,VALID,0,VALID,99.2653,VALID,-0.0679233,VALID,20.1483,VALID,5,VALID,0.490179,
2002-06-06, 03:20:00,VALID,915.884,VALID,0,VALID,99.2665,VALID,-0.0509425,VALID,20.1582,VALID,17,VALID,0.784697,
2002-06-06, 03:21:00,VALID,915.874,VALID,0,VALID,99.2767,VALID,-0.0509425,VALID,20.1552,VALID,9,VALID,1.06758,
2002-06-06, 03:22:00,VALID,915.886,VALID,0,VALID,99.2615,VALID,-0.0339617,VALID,20.1065,VALID,359,VALID,1.08002,
2002-06-06, 03:23:00,VALID,915.887,VALID,0,VALID,99.2424,VALID,-0.0169808,VALID,20.0769,VALID,1,VALID,1.14219,
2002-06-06, 03:24:00,VALID,915.878,VALID,0,VALID,99.2462,VALID,-0.0679233,VALID,20.0541,VALID,20,VALID,0.90918,
2002-06-06, 03:25:00,VALID,915.888,VALID,0,VALID,99.2475,VALID,-0.0339617,VALID,20.0578,VALID,5,VALID,1.06071,
2002-06-06, 03:26:00,VALID,915.902,VALID,0,VALID,99.2462,VALID,-0.0339617,VALID,20.0384,VALID,12,VALID,0.768382,
2002-06-06, 03:27:00,VALID,915.912,VALID,0,VALID,99.2475,VALID,-0.0339617,VALID,20.019,VALID,3,VALID,0.503516,
2002-06-06, 03:28:00,VALID,915.908,VALID,0,VALID,99.2449,VALID,-0.0509425,VALID,19.9994,VALID,344,VALID,0.056108,
2002-06-06, 03:29:00,VALID,915.906,VALID,0,VALID,99.2437,VALID,-0.0679233,VALID,20.0029,VALID,327,VALID,0.242857,
2002-06-06, 03:30:00,VALID,915.886,VALID,0,VALID,99.2564,VALID,-0.0679233,VALID,19.987,VALID,318,VALID,0.0255859,
2002-06-06, 03:31:00,VALID,915.884,VALID,0.2,VALID,99.2538,VALID,-0.101885,VALID,19.99,VALID,318,VALID,0,
2002-06-06, 03:32:00,VALID,915.866,VALID,0,VALID,99.2589,VALID,-0.0849042,VALID,20.0056,VALID,320,VALID,0.000229779,